Location: Bassano
(45.7667°N, 11.7333°E)
Time: 17:44:09
(UTC+00:00)

Cosmos 2278 Rocket - Pass Details

Date: 07 June 2020
Orbit: 840 x 847 km, 71.0° (Epoch: 06 July)

Event Time Altitude Azimuth Distance (km) Brightness Sun altitude
Rises 02:20:22 0° 339° (NNW) 3,419 5.7 -9.2°
Reaches altitude 10° 02:23:08 10° 350° (N) 2,480 5.2 -8.9°
Maximum altitude 02:28:08 30° 51° (NE) 1,469 4.4 -8.3°
Drops below altitude 10° 02:33:05 10° 112° (ESE) 2,466 5.0 -7.7°
Sets 02:35:49 0° 123° (ESE) 3,396 5.5 -7.3°
